| time (UTC) | temp F | wind direction | speed MPH | gust MPH | rain 1hr in | rain 24hr in | rain mn in | humidity % | barometer mb |
| 20260831053521 | 76 | 131 | 9.0 | 10.0 | 0.00 | 0.02 | 0.00 | 97 | 1019.4 |
| 20260831052516 | 76 | 131 | 9.0 | 9.0 | 0.00 | 0.02 | 0.00 | 97 | 1019.4 |
| 20260831051532 | 76 | 132 | 8.0 | 9.0 | 0.00 | 0.02 | 0.00 | 97 | 1019.5 |
| 20260831050526 | 76 | 129 | 8.0 | 9.0 | 0.00 | 0.02 | 0.00 | 97 | 1019.5 |
| 20260831045522 | 76 | 130 | 9.0 | 9.0 | 0.00 | 0.02 | 0.00 | 97 | 1019.5 |
| 20260831044517 | 76 | 130 | 8.0 | 9.0 | 0.00 | 0.02 | 0.00 | 97 | 1019.5 |
| 20260831043532 | 76 | 128 | 8.0 | 9.0 | 0.00 | 0.02 | 0.00 | 97 | 1019.6 |
| 20260831042527 | 76 | 130 | 9.0 | 9.0 | 0.00 | 0.02 | 0.00 | 97 | 1019.4 |
| 20260831041522 | 77 | 132 | 9.0 | 9.0 | 0.00 | 0.02 | 0.00 | 97 | 1019.3 |
| 20260831040518 | 77 | 130 | 9.0 | 9.0 | 0.00 | 0.02 | 0.00 | 97 | 1019.5 |
| 20260831035533 | 77 | 127 | 8.0 | 9.0 | 0.00 | 0.02 | 0.02 | 97 | 1019.6 |
| 20260831034528 | 77 | 128 | 8.0 | 9.0 | 0.00 | 0.02 | 0.02 | 97 | 1019.6 |
| 20260831033523 | 77 | 129 | 9.0 | 9.0 | 0.00 | 0.02 | 0.02 | 97 | 1019.7 |
| 20260831032518 | 77 | 133 | 9.0 | 10.0 | 0.00 | 0.02 | 0.02 | 97 | 1019.7 |
| 20260831031534 | 77 | 133 | 9.0 | 9.0 | 0.00 | 0.02 | 0.02 | 97 | 1019.9 |
| 20260831030529 | 77 | 132 | 8.0 | 9.0 | 0.00 | 0.02 | 0.02 | 96 | 1019.8 |
| 20260831025524 | 77 | 132 | 9.0 | 10.0 | 0.00 | 0.02 | 0.02 | 96 | 1019.7 |
| 20260831024520 | 77 | 130 | 9.0 | 10.0 | 0.00 | 0.02 | 0.02 | 96 | 1019.6 |
| 20260831023535 | 77 | 134 | 9.0 | 9.0 | 0.00 | 0.02 | 0.02 | 96 | 1019.6 |
| 20260831022530 | 77 | 135 | 9.0 | 10.0 | 0.00 | 0.02 | 0.02 | 95 | 1019.5 |
| 20260831021525 | 77 | 132 | 9.0 | 11.0 | 0.00 | 0.02 | 0.02 | 95 | 1019.5 |
| 20260831020520 | 77 | 137 | 9.0 | 10.0 | 0.00 | 0.02 | 0.02 | 95 | 1019.6 |
| 20260831015536 | 78 | 135 | 9.0 | 9.0 | 0.00 | 0.02 | 0.02 | 95 | 1019.4 |
| 20260831014531 | 78 | 139 | 10.0 | 11.0 | 0.00 | 0.02 | 0.02 | 94 | 1019.4 |
| 20260831013526 | 78 | 139 | 10.0 | 10.0 | 0.00 | 0.02 | 0.02 | 94 | 1019.4 |
| 20260831012521 | 78 | 137 | 9.0 | 10.0 | 0.00 | 0.02 | 0.02 | 94 | 1019.6 |
| 20260831011516 | 78 | 138 | 9.0 | 10.0 | 0.00 | 0.02 | 0.02 | 94 | 1019.5 |
| 20260831010532 | 78 | 141 | 9.0 | 11.0 | 0.00 | 0.02 | 0.02 | 93 | 1019.2 |
| 20260831005527 | 78 | 136 | 9.0 | 10.0 | 0.00 | 0.02 | 0.02 | 93 | 1019.2 |
| 20260831004522 | 78 | 137 | 9.0 | 10.0 | 0.00 | 0.02 | 0.02 | 93 | 1019.0 |
| 20260831003517 | 79 | 141 | 9.0 | 10.0 | 0.00 | 0.02 | 0.02 | 92 | 1019.1 |
| 20260831002532 | 79 | 140 | 9.0 | 10.0 | 0.00 | 0.02 | 0.02 | 92 | 1018.9 |
| 20260831001528 | 79 | 134 | 9.0 | 9.0 | 0.00 | 0.02 | 0.02 | 91 | 1018.9 |
| 20260831000523 | 80 | 137 | 9.0 | 10.0 | 0.00 | 0.02 | 0.02 | 91 | 1018.8 |
| 20260830235518 | 80 | 141 | 10.0 | 11.0 | 0.00 | 0.02 | 0.02 | 90 | 1018.8 |
| 20260830234533 | 80 | 144 | 10.0 | 11.0 | 0.00 | 0.02 | 0.02 | 90 | 1018.9 |
| 20260830233528 | 80 | 139 | 10.0 | 11.0 | 0.00 | 0.02 | 0.02 | 90 | 1018.9 |
| 20260830232523 | 81 | 132 | 9.0 | 10.0 | 0.00 | 0.02 | 0.02 | 90 | 1019.0 |
| 20260830231518 | 81 | 138 | 9.0 | 11.0 | 0.00 | 0.02 | 0.02 | 89 | 1019.0 |
| 20260830230534 | 81 | 139 | 10.0 | 11.0 | 0.00 | 0.02 | 0.02 | 87 | 1019.1 |
| 20260830225528 | 82 | 141 | 9.0 | 11.0 | 0.00 | 0.02 | 0.02 | 85 | 1019.0 |
| 20260830224523 | 82 | 141 | 10.0 | 11.0 | 0.00 | 0.02 | 0.02 | 84 | 1019.1 |
| 20260830223518 | 82 | 142 | 10.0 | 12.0 | 0.00 | 0.02 | 0.02 | 84 | 1019.1 |
| 20260830222533 | 82 | 140 | 9.0 | 11.0 | 0.00 | 0.02 | 0.02 | 83 | 1019.0 |
| 20260830221528 | 82 | 135 | 9.0 | 10.0 | 0.00 | 0.02 | 0.02 | 83 | 1019.1 |
| 20260830220523 | 82 | 138 | 10.0 | 11.0 | 0.00 | 0.02 | 0.02 | 82 | 1019.3 |
| 20260830215518 | 82 | 136 | 9.0 | 11.0 | 0.00 | 0.02 | 0.02 | 83 | 1019.4 |
| 20260830214534 | 82 | 139 | 9.0 | 11.0 | 0.00 | 0.02 | 0.02 | 82 | 1019.5 |
| 20260830213529 | 82 | 130 | 8.0 | 10.0 | 0.00 | 0.02 | 0.02 | 81 | 1019.4 |
| 20260830212524 | 83 | 136 | 8.0 | 10.0 | 0.00 | 0.02 | 0.02 | 82 | 1019.5 |
| 20260830211519 | 83 | 132 | 9.0 | 10.0 | 0.00 | 0.02 | 0.02 | 82 | 1019.4 |
| 20260830210534 | 83 | 186 | 5.0 | 7.0 | 0.00 | 0.02 | 0.02 | 83 | 1019.6 |
| 20260830205530 | 83 | 182 | 5.0 | 6.0 | 0.00 | 0.02 | 0.02 | 83 | 1019.5 |
| 20260830204525 | 83 | 187 | 5.0 | 7.0 | 0.00 | 0.02 | 0.02 | 82 | 1019.6 |
| 20260830203520 | 83 | 182 | 5.0 | 6.0 | 0.00 | 0.02 | 0.02 | 83 | 1019.5 |
| 20260830202536 | 82 | 182 | 4.0 | 6.0 | 0.00 | 0.02 | 0.02 | 84 | 1019.5 |
| 20260830201531 | 82 | 180 | 4.0 | 5.0 | 0.00 | 0.02 | 0.02 | 84 | 1019.4 |
| 20260830200526 | 82 | 182 | 3.0 | 4.0 | 0.00 | 0.02 | 0.02 | 84 | 1019.5 |
| 20260830195521 | 82 | 181 | 3.0 | 5.0 | 0.00 | 0.02 | 0.02 | 83 | 1019.7 |
| 20260830194536 | 82 | 178 | 4.0 | 5.0 | 0.00 | 0.02 | 0.02 | 84 | 1019.9 |
| 20260830193531 | 82 | 174 | 4.0 | 6.0 | 0.00 | 0.02 | 0.02 | 83 | 1020.2 |
| 20260830192527 | 82 | 68 | 0.0 | 2.0 | 0.00 | 0.02 | 0.02 | 83 | 1020.2 |
| 20260830191522 | 82 | 91 | 1.0 | 2.0 | 0.00 | 0.02 | 0.02 | 81 | 1020.3 |
| 20260830190517 | 83 | 14 | 1.0 | 2.0 | 0.00 | 0.02 | 0.02 | 78 | 1020.3 |
| 20260830185532 | 85 | 337 | 1.0 | 3.0 | 0.00 | 0.02 | 0.02 | 78 | 1020.1 |
| 20260830184528 | 84 | 188 | 0.0 | 2.0 | 0.00 | 0.02 | 0.02 | 79 | 1020.0 |
| 20260830183523 | 84 | 232 | 1.0 | 3.0 | 0.00 | 0.02 | 0.02 | 80 | 1020.1 |
| 20260830182518 | 84 | 233 | 1.0 | 6.0 | 0.00 | 0.02 | 0.02 | 79 | 1020.1 |
| 20260830181533 | 84 | 220 | 2.0 | 4.0 | 0.00 | 0.02 | 0.02 | 78 | 1020.1 |
| 20260830180528 | 85 | 236 | 1.0 | 5.0 | 0.00 | 0.02 | 0.02 | 78 | 1020.2 |
| 20260830175524 | 85 | 217 | 1.0 | 4.0 | 0.00 | 0.02 | 0.02 | 77 | 1020.3 |
| 20260830174519 | 85 | 234 | 3.0 | 7.0 | 0.00 | 0.02 | 0.02 | 76 | 1020.4 |
| 20260830173534 | 85 | 222 | 1.0 | 4.0 | 0.00 | 0.02 | 0.02 | 75 | 1020.5 |
| 20260830172529 | 85 | 239 | 3.0 | 5.0 | 0.00 | 0.02 | 0.02 | 73 | 1020.6 |
| 20260830171525 | 85 | 207 | 7.0 | 11.0 | 0.00 | 0.02 | 0.02 | 73 | 1020.7 |
| 20260830170520 | 85 | 196 | 6.0 | 10.0 | 0.00 | 0.02 | 0.02 | 77 | 1020.7 |
| 20260830165535 | 84 | 191 | 5.0 | 8.0 | 0.00 | 0.02 | 0.02 | 78 | 1020.7 |
| 20260830164530 | 84 | 186 | 5.0 | 7.0 | 0.00 | 0.02 | 0.02 | 79 | 1020.9 |
| 20260830163525 | 84 | 190 | 4.0 | 7.0 | 0.00 | 0.02 | 0.02 | 77 | 1020.9 |
| 20260830162520 | 84 | 175 | 4.0 | 5.0 | 0.00 | 0.02 | 0.02 | 78 | 1020.9 |
| 20260830161535 | 84 | 179 | 4.0 | 6.0 | 0.00 | 0.02 | 0.02 | 78 | 1021.1 |
| 20260830160531 | 84 | 177 | 4.0 | 5.0 | 0.00 | 0.02 | 0.02 | 78 | 1021.2 |
| 20260830155526 | 85 | 177 | 4.0 | 5.0 | 0.00 | 0.02 | 0.02 | 76 | 1021.3 |
| 20260830154521 | 84 | 186 | 4.0 | 5.0 | 0.00 | 0.02 | 0.02 | 77 | 1021.2 |
| 20260830153516 | 85 | 178 | 4.0 | 5.0 | 0.00 | 0.02 | 0.02 | 76 | 1021.5 |
| 20260830152531 | 86 | 178 | 4.0 | 8.0 | 0.00 | 0.02 | 0.02 | 73 | 1021.5 |
| 20260830151526 | 85 | 137 | 7.0 | 11.0 | 0.00 | 0.02 | 0.02 | 75 | 1021.5 |
| 20260830150521 | 85 | 128 | 8.0 | 10.0 | 0.00 | 0.02 | 0.02 | 76 | 1021.6 |
| 20260830145516 | 84 | 132 | 8.0 | 9.0 | 0.00 | 0.02 | 0.02 | 78 | 1021.4 |
| 20260830144532 | 83 | 128 | 8.0 | 10.0 | 0.00 | 0.02 | 0.02 | 79 | 1021.5 |
| 20260830143527 | 83 | 130 | 8.0 | 9.0 | 0.00 | 0.02 | 0.02 | 81 | 1021.5 |
| 20260830142522 | 82 | 129 | 8.0 | 10.0 | 0.00 | 0.02 | 0.02 | 84 | 1021.5 |
| 20260830141517 | 81 | 129 | 7.0 | 9.0 | 0.00 | 0.02 | 0.02 | 85 | 1021.6 |
| 20260830140532 | 80 | 129 | 7.0 | 9.0 | 0.00 | 0.02 | 0.02 | 87 | 1021.5 |
| 20260830135528 | 79 | 128 | 8.0 | 10.0 | 0.00 | 0.04 | 0.02 | 89 | 1021.6 |
| 20260830134523 | 78 | 123 | 7.0 | 8.0 | 0.00 | 0.06 | 0.02 | 90 | 1021.7 |
| 20260830133517 | 78 | 137 | 7.0 | 9.0 | 0.00 | 0.07 | 0.02 | 93 | 1021.7 |
| 20260830132533 | 77 | 135 | 8.0 | 9.0 | 0.00 | 0.08 | 0.02 | 94 | 1021.5 |
| 20260830131528 | 77 | 123 | 8.0 | 10.0 | 0.00 | 0.09 | 0.02 | 96 | 1021.4 |
| 20260830130522 | 77 | 133 | 7.0 | 10.0 | 0.00 | 0.10 | 0.02 | 97 | 1021.3 |
| 20260830125517 | 76 | 133 | 7.0 | 11.0 | 0.00 | 0.11 | 0.02 | 97 | 1021.1 |
| 20260830124533 | 75 | 134 | 7.0 | 9.0 | 0.00 | 0.14 | 0.02 | 97 | 1020.9 |
| 20260830123528 | 75 | 131 | 9.0 | 11.0 | 0.01 | 0.20 | 0.02 | 97 | 1020.8 |
| 20260830122523 | 74 | 135 | 9.0 | 10.0 | 0.02 | 0.49 | 0.02 | 97 | 1020.8 |
| 20260830121518 | 74 | 133 | 9.0 | 10.0 | 0.02 | 0.72 | 0.02 | 97 | 1020.7 |
| 20260830120533 | 74 | 132 | 9.0 | 10.0 | 0.02 | 0.89 | 0.02 | 97 | 1020.7 |
| 20260830115529 | 73 | 132 | 8.0 | 10.0 | 0.02 | 0.96 | 0.02 | 97 | 1020.9 |
| 20260830114524 | 73 | 130 | 8.0 | 10.0 | 0.02 | 0.97 | 0.02 | 97 | 1020.8 |
| 20260830113519 | 73 | 133 | 8.0 | 10.0 | 0.01 | 0.97 | 0.01 | 97 | 1021.0 |
| 20260830112534 | 73 | 132 | 8.0 | 10.0 | 0.00 | 0.96 | 0.00 | 97 | 1020.9 |
| 20260830111529 | 73 | 132 | 9.0 | 10.0 | 0.00 | 0.96 | 0.00 | 97 | 1020.8 |
| 20260830110525 | 73 | 130 | 9.0 | 11.0 | 0.00 | 0.96 | 0.00 | 97 | 1020.7 |
| 20260830105521 | 73 | 127 | 8.0 | 11.0 | 0.00 | 0.96 | 0.00 | 97 | 1020.7 |
| 20260830104535 | 73 | 125 | 8.0 | 10.0 | 0.00 | 0.96 | 0.00 | 97 | 1020.7 |
| 20260830103530 | 73 | 132 | 9.0 | 11.0 | 0.00 | 0.96 | 0.00 | 97 | 1020.7 |
| 20260830102525 | 73 | 134 | 9.0 | 11.0 | 0.00 | 0.96 | 0.00 | 97 | 1020.6 |
| 20260830101521 | 73 | 127 | 8.0 | 9.0 | 0.00 | 0.96 | 0.00 | 97 | 1020.5 |
| 20260830100536 | 73 | 125 | 8.0 | 10.0 | 0.00 | 0.96 | 0.00 | 97 | 1020.6 |
| 20260830095532 | 73 | 119 | 7.0 | 9.0 | 0.00 | 0.96 | 0.00 | 97 | 1020.6 |
| 20260830094526 | 73 | 131 | 8.0 | 11.0 | 0.00 | 0.96 | 0.00 | 97 | 1020.4 |
| 20260830093522 | 73 | 130 | 9.0 | 11.0 | 0.00 | 0.96 | 0.00 | 97 | 1020.3 |
| 20260830092517 | 73 | 134 | 9.0 | 11.0 | 0.00 | 0.96 | 0.00 | 97 | 1020.3 |
| 20260830091533 | 73 | 127 | 8.0 | 10.0 | 0.00 | 0.96 | 0.00 | 97 | 1020.1 |
| 20260830090527 | 73 | 128 | 8.0 | 10.0 | 0.00 | 0.96 | 0.00 | 97 | 1020.2 |
| 20260830085523 | 73 | 134 | 8.0 | 10.0 | 0.00 | 0.96 | 0.00 | 97 | 1020.3 |
| 20260830084518 | 73 | 134 | 9.0 | 10.0 | 0.00 | 0.96 | 0.00 | 97 | 1020.2 |
| 20260830083533 | 73 | 140 | 9.0 | 12.0 | 0.00 | 0.97 | 0.00 | 97 | 1020.2 |
| 20260830082529 | 73 | 133 | 8.0 | 11.0 | 0.00 | 0.97 | 0.00 | 97 | 1020.3 |
| 20260830081523 | 74 | 118 | 7.0 | 10.0 | 0.00 | 0.97 | 0.00 | 97 | 1020.1 |
| 20260830080519 | 74 | 134 | 9.0 | 11.0 | 0.00 | 0.97 | 0.00 | 97 | 1020.2 |
| 20260830075534 | 74 | 137 | 9.0 | 11.0 | 0.00 | 0.97 | 0.00 | 97 | 1020.3 |
| 20260830074529 | 74 | 133 | 8.0 | 9.0 | 0.00 | 0.97 | 0.00 | 97 | 1020.2 |
| 20260830073524 | 74 | 131 | 8.0 | 9.0 | 0.00 | 0.97 | 0.00 | 97 | 1020.3 |
| 20260830072519 | 74 | 136 | 8.0 | 9.0 | 0.00 | 0.97 | 0.00 | 97 | 1020.4 |
| 20260830071534 | 74 | 135 | 8.0 | 9.0 | 0.00 | 0.97 | 0.00 | 97 | 1020.3 |
| 20260830070530 | 74 | 136 | 8.0 | 9.0 | 0.00 | 0.98 | 0.00 | 97 | 1020.4 |
| 20260830065525 | 74 | 134 | 9.0 | 10.0 | 0.00 | 0.99 | 0.00 | 97 | 1020.6 |
| 20260830064520 | 74 | 135 | 8.0 | 9.0 | 0.00 | 1.00 | 0.00 | 97 | 1020.8 |
| 20260830063535 | 74 | 137 | 8.0 | 9.0 | 0.00 | 1.02 | 0.00 | 96 | 1020.8 |
| 20260830062531 | 74 | 136 | 8.0 | 9.0 | 0.00 | 1.04 | 0.00 | 96 | 1020.8 |
| 20260830061526 | 74 | 135 | 8.0 | 9.0 | 0.00 | 1.05 | 0.00 | 96 | 1020.8 |
| 20260830060521 | 74 | 134 | 9.0 | 10.0 | 0.00 | 1.06 | 0.00 | 96 | 1021.0 |
| 20260830055516 | 74 | 135 | 8.0 | 9.0 | 0.00 | 1.07 | 0.00 | 96 | 1021.1 |
| 20260830054532 | 75 | 130 | 8.0 | 9.0 | 0.00 | 1.07 | 0.00 | 96 | 1021.1 |